This demonstration page uses our WeatherBlox Daily Observations layout. Learn more.

Left ArrowRight Arrow

Hourly Observations for November 30, 2021

Temp ( °F °C ) Dew Point ( °F °C ) Humidity (%) Winds ( mph kmh ) Pressure ( in mb ) Visibility ( mi km ) Precip ( " mm )
12:15 am 00:15 Clear 36 2.4 27 -2.7 69 69 NNW 3 6 30.13 1020 10 16 0.00 0.00
12:35 am 00:35 Clear 37 2.8 28 -2.4 69 69 NNW 3 6 30.14 1021 10 16 0.00 0.00
12:55 am 00:55 Clear 36 2.3 27 -2.6 70 70 NNW 7 11 30.14 1021 10 16 0.00 0.00
1:15 am 01:15 Clear 43 6 30 -1.3 60 60 Calm 30.11 1020 10 16 0.00 0.00
1:35 am 01:35 Clear 38 3.3 28 -2.1 68 68 Calm 30.13 1020 10 16 0.00 0.00
1:55 am 01:55 Clear 39 3.9 29 -1.7 67 67 N 5 7 30.14 1021 10 16 0.00 0.00
2:15 am 02:15 Clear 41 5 30 -1 66 66 N 7 11 30.14 1021 10 16 0.00 0.00
2:35 am 02:35 Clear 41 4.9 30 -0.9 66 66 N 5 7 30.14 1021 10 16 0.00 0.00
2:55 am 02:55 Clear 41 4.8 30 -1 66 66 N 8 13 30.14 1021 10 16 0.00 0.00
3:15 am 03:15 Clear 41 4.9 31 -0.8 67 67 NNE 12 19 30.15 1021 10 16 0.00 0.00
3:35 am 03:35 Clear 41 5 31 -0.8 66 66 N 6 9 30.15 1021 10 16 0.00 0.00
3:55 am 03:55 Clear 40 4.5 31 -0.8 69 69 N 7 11 30.15 1021 10 16 0.00 0.00
4:15 am 04:15 Clear 40 4.5 31 -0.8 69 69 N 7 11 30.16 1021 10 16 0.00 0.00
4:35 am 04:35 Clear 39 4.1 31 -0.8 71 71 N 6 9 30.17 1022 10 16 0.00 0.00
4:55 am 04:55 Clear 40 4.2 30 -0.9 70 70 N 8 13 30.18 1022 10 16 0.00 0.00
5:15 am 05:15 Clear 39 3.9 31 -0.8 72 72 N 7 11 30.18 1022 10 16 0.00 0.00
5:35 am 05:35 Clear 39 3.8 31 -0.7 73 73 N 7 11 30.19 1022 10 16 0.00 0.00
5:55 am 05:55 Clear 38 3.6 31 -0.7 74 74 N 7 11 30.20 1023 10 16 0.00 0.00
6:15 am 06:15 Clear 38 3.4 31 -0.6 75 75 N 6 9 30.21 1023 10 16 0.00 0.00
6:35 am 06:35 Clear 38 3.3 31 -0.5 76 76 NNE 7 11 30.21 1023 10 16 0.00 0.00
6:55 am 06:55 Clear 39 4.1 32 -0.1 74 74 N 7 11 30.22 1023 10 16 0.00 0.00
7:15 am 07:15 Clear 39 3.8 32 0 77 77 N 6 9 30.22 1023 10 16 0.00 0.00
7:35 am 07:35 Clear 40 4.2 32 0.1 75 75 N 5 7 30.23 1024 10 16 0.00 0.00
7:55 am 07:55 Partly Cloudy 41 4.8 32 0.2 72 72 N 3 6 30.24 1024 10 16 0.00 0.00
8:15 am 08:15 Cloudy 41 4.9 32 0.2 72 72 NNW 7 11 30.25 1024 10 16 0.00 0.00
8:35 am 08:35 Cloudy 42 5.4 33 0.5 71 71 N 3 6 30.24 1024 10 16 0.00 0.00
8:55 am 08:55 Cloudy 42 5.8 33 0.7 70 70 NW 5 7 30.26 1025 10 16 0.00 0.00
9:15 am 09:15 Cloudy 43 6 34 0.9 70 70 NNW 5 7 30.27 1025 10 16 0.00 0.00
9:35 am 09:35 Cloudy 44 6.6 34 1 68 68 NNW 6 9 30.26 1025 10 16 0.00 0.00
9:55 am 09:55 Mostly Cloudy 46 7.5 34 1.3 65 65 N 6 9 30.26 1025 10 16 0.00 0.00
10:15 am 10:15 Mostly Cloudy 47 8.1 34 1.3 63 63 N 5 7 30.26 1025 10 16 0.00 0.00
10:35 am 10:35 Cloudy 48 8.8 35 1.5 61 61 Calm 30.25 1025 10 16 0.00 0.00
10:55 am 10:55 Mostly Cloudy 49 9.4 35 1.6 59 59 Calm 30.23 1024 10 16 0.00 0.00
11:15 am 11:15 Partly Cloudy 51 10.5 35 1.7 55 55 Calm 30.21 1023 10 16 0.00 0.00
11:35 am 11:35 Sunny 53 11.4 35 1.7 52 52 E 3 6 30.19 1022 10 16 0.00 0.00
11:55 am 11:55 Sunny 54 12.1 35 1.8 50 50 Calm 30.17 1022 10 16 0.00 0.00
12:15 pm 12:15 Sunny 55 12.7 35 1.5 47 47 SE 7 11 30.14 1021 10 16 0.00 0.00
12:35 pm 12:35 Sunny 56 13.5 35 1.4 44 44 SSE 5 7 30.12 1020 10 16 0.00 0.00
12:55 pm 12:55 Sunny 58 14.2 34 1.2 41 41 S 3 6 30.11 1020 10 16 0.00 0.00
1:15 pm 13:15 Sunny 58 14.2 34 1.1 41 41 SSE 6 9 30.10 1019 10 16 0.00 0.00
1:35 pm 13:35 Sunny 58 14.6 34 1.1 40 40 S 7 11 30.09 1019 10 16 0.00 0.00
1:55 pm 13:55 Sunny 59 14.9 34 1.1 39 39 S 8 13 30.07 1018 10 16 0.00 0.00
2:15 pm 14:15 Sunny 59 14.8 34 1.2 40 40 S 7 11 30.06 1018 10 16 0.00 0.00
2:35 pm 14:35 Sunny 58 14.6 34 1 40 40 SSW 9 15 30.06 1018 10 16 0.00 0.00
2:55 pm 14:55 Sunny 58 14.6 34 0.9 40 40 S 10 17 30.05 1018 10 16 0.00 0.00
3:15 pm 15:15 Sunny 58 14.6 34 1 40 40 S 10 17 30.04 1017 10 16 0.00 0.00
3:35 pm 15:35 Sunny 58 14.2 34 1 41 41 S 7 11 30.04 1017 10 16 0.00 0.00
3:55 pm 15:55 Sunny 58 14.3 34 1.2 41 41 SW 7 11 30.04 1017 10 16 0.00 0.00
4:15 pm 16:15 Sunny 58 14.2 34 1.3 42 42 S 9 15 30.02 1016 10 16 0.00 0.00
4:35 pm 16:35 Sunny 56 13.4 34 1 43 43 S 6 9 30.02 1017 10 16 0.00 0.00
4:55 pm 16:55 Sunny 55 12.8 33 0.8 44 44 S 7 11 30.02 1017 10 16 0.00 0.00
5:15 pm 17:15 Clear 52 11.2 33 0.7 49 49 SW 3 6 30.05 1018 10 16 0.00 0.00
5:35 pm 17:35 Clear 50 10.1 33 0.6 52 52 SSW 3 6 30.05 1018 10 16 0.00 0.00
6:15 pm 18:15 Clear 50 10 33 0.6 52 52 S 10 17 30.03 1017 10 16 0.00 0.00
6:35 pm 18:35 Clear 50 9.8 33 0.7 53 53 S 9 15 30.02 1017 10 16 0.00 0.00
6:55 pm 18:55 Clear 48 9.1 33 0.6 56 56 S 10 17 30.01 1016 10 16 0.00 0.00
7:15 pm 19:15 Clear 48 9.1 34 0.9 57 57 S 9 15 30.01 1016 10 16 0.00 0.00
7:35 pm 19:35 Clear 49 9.5 34 1.3 57 57 S 9 15 30.01 1016 10 16 0.00 0.00
7:55 pm 19:55 Clear 49 9.7 35 1.6 57 57 SSW 10 17 30.01 1016 10 16 0.00 0.00
8:15 pm 20:15 Clear 50 9.9 36 2 58 58 SSW 12 19 29.98 1015 10 16 0.00 0.00
8:35 pm 20:35 Clear 50 9.8 36 2.2 59 59 SSW 9 15 29.99 1016 10 16 0.00 0.00
8:55 pm 20:55 Clear 49 9.3 36 2.3 62 62 SSW 8 13 30.00 1016 10 16 0.00 0.00
9:15 pm 21:15 Clear 49 9.3 36 2.4 62 62 SSW 8 13 30.00 1016 10 16 0.00 0.00
9:35 pm 21:35 Clear 49 9.7 37 2.7 62 62 SSW 9 15 30.00 1016 10 16 0.00 0.00
9:55 pm 21:55 Clear 49 9.5 37 2.7 63 63 SW 10 17 30.00 1016 10 16 0.00 0.00
10:15 pm 22:15 Clear 49 9.5 37 2.7 63 63 SW 13 20 29.99 1015 10 16 0.00 0.00
10:35 pm 22:35 Clear 49 9.6 37 2.7 62 62 SW 10 17 29.99 1015 10 16 0.00 0.00
10:55 pm 22:55 Clear 49 9.5 37 2.5 62 62 WSW 12 19 30.00 1016 10 16 0.00 0.00
11:15 pm 23:15 Clear 50 10 37 2.5 60 60 SW 12 19 29.98 1015 10 16 0.00 0.00
11:35 pm 23:35 Mostly Cloudy 51 10.3 36 2.2 58 58 WSW 10 17 29.98 1015 10 16 0.00 0.00
11:55 pm 23:55 Cloudy 51 10.5 35 1.9 56 56 WSW 14 22 29.98 1015 10 16 0.00 0.00

Powered by AerisWeather